Flag for Canada Weather past 2 weeks in Kitchener, Ontario, Canada

Now
64 °F

Overcast.


Feels Like: 64 °F
Forecast: 56 / 71 °F
Wind: 5 mph from West

Location: Waterloo Well

Current Time: Aug 4, 2015 at 12:31:12 AM

Latest Report: Aug 4, 2015 at 12:00 AM


Visibility: 9 mi

Pressure: 29.81 "Hg

Humidity: 73%

Dew point: 55 °F

Location of KitchenerLocation

Historic Weather in Kitchener — Graph

°F

Kitchener temperature yesterday

Maximum temperature yesterday: 77 °F (at 2:00 PM)
Minimum temperature yesterday: 61 °F (at 2:00 AM)
Average temperature yesterday: 67 °F

Past Weeks' High & Low Weather Summary

 TemperatureHumidityPressure
High90 °F (Jul 29, 3:00 PM)100% (Jul 20, 6:00 AM)30.06 "Hg (Jul 20, 6:00 AM)
Low46 °F (Jul 24, 5:00 AM)31% (Jul 29, 3:00 PM)29.61 "Hg (Aug 2, 9:00 PM)
Average70 °F69%29.88 "Hg
* Reported Jul 19 11:00 PM — Aug 3 11:00 PM, Kitchener, Weather by CustomWeather, © 2015

Note: Actual official high and low records may vary slightly from our data, if they occured in-between our weather recording intervals... More about our weather records

Advertising

Kitchener weather history for previous 24 hours

 ConditionsComfort  
Time TempWeatherWind HumidityBarometerVisibility
11:00 PM
Mon, Aug 3
64 °FOvercast.6 mph73%29.81 "Hg9 mi
10:00 PM66 °FPassing clouds.8 mph64%29.81 "Hg9 mi
9:00 PM68 °FOvercast.7 mph56%29.80 "Hg9 mi
8:00 PM70 °FOvercast.13 mph50%29.78 "Hg9 mi
7:00 PM72 °FBroken clouds.12 mph47%29.77 "Hg9 mi
6:00 PM75 °FPassing clouds.13 mph41%29.75 "Hg9 mi
5:00 PM73 °FOvercast.14 mph44%29.77 "Hg9 mi
4:00 PM77 °FPassing clouds.9 mph42%29.76 "Hg9 mi
3:00 PM77 °FScattered clouds.13 mph44%29.76 "Hg9 mi
2:00 PM77 °FPassing clouds.14 mph44%29.77 "Hg9 mi
1:00 PM73 °FPartly sunny.15 mph53%29.76 "Hg9 mi
12:00 PM73 °FPassing clouds.13 mph61%29.75 "Hg9 mi
11:00 AM72 °FScattered clouds.10 mph69%29.74 "Hg9 mi
10:00 AM66 °FCloudy.13 mph83%29.75 "Hg9 mi
9:00 AM64 °FMostly cloudy.14 mph88%29.72 "Hg9 mi
8:02 AM63 °FLight rain. Mostly cloudy.16 mph94%29.71 "Hg9 mi
7:00 AM63 °FOvercast.13 mph94%29.70 "Hg9 mi
6:00 AM63 °FOvercast.15 mph94%29.70 "Hg9 mi
5:53 AM63 °FOvercast.13 mph94%29.70 "Hg9 mi
5:00 AM63 °FMostly cloudy.15 mph94%29.69 "Hg9 mi
4:57 AM63 °FMostly cloudy.15 mph94%29.69 "Hg9 mi
4:00 AM63 °FLight rain. Overcast.15 mph94%29.69 "Hg9 mi
3:59 AM63 °FLight rain. Overcast.16 mph94%29.68 "Hg9 mi
3:00 AM61 °FLight rain. Overcast.15 mph100%29.65 "Hg9 mi
2:00 AM61 °FLight rain. Mostly cloudy.14 mph94%29.68 "Hg9 mi
1:00 AM63 °FLight rain. Overcast.15 mph94%29.67 "Hg9 mi
12:00 AM63 °FRain. Mostly cloudy.10 mph94%29.69 "Hg9 mi
Weather by CustomWeather, © 2015

See weather overviewHow to use our weather pages